Location: Tierra del Sol
(32.6128°N, 116.3319°W)
Time: 23:15:13
(UTC-07:00)

Amateur Radio Satellites - All Passes

Search period start: 30 August 2014 22:45
Search period end: 31 August 2014 22:45
Location: Tierra del Sol, 32.6128°N, 116.3319°W

Satellite Date Start Highest point End Downlink Frequencies (MHz)
Time Altitude Azimuth
KITSAT 1 30 Aug 23:37:39 23:45:43 77° 297° (WNW) 23:53:51 435.175 FM
MaSat-1 30 Aug 23:59:05 00:02:26 23° 258° (WSW) 00:05:25 437.345 MHz
Oscar 16 31 Aug 01:22:11 01:26:07 21° 95° (E) 01:30:00 437.025 USB, Beacon 2401.1428
Oscar 10/S400 31 Aug 01:32:52 02:40:22 59° 219° (SW) 12:17:59 145.825 - 145.975 CW/USB, Beacon 145.810 USB
KITSAT 1 31 Aug 01:37:51 01:42:27 16° 317° (NW) 01:47:04 435.175 FM
AO-27 31 Aug 01:49:55 01:53:01 16° 94° (E) 01:56:06 436.795 MHz FM
Sapphire 31 Aug 01:50:16 01:55:03 31° 58° (ENE) 01:59:48 437.095 MHz 1200 baud AX-25 AFSK
JAS-1B 31 Aug 01:51:20 01:54:51 15° 90° (E) 01:58:10 435.800 - 435.900 CW/SSB
PCSat 31 Aug 02:19:18 02:24:41 62° 63° (ENE) 02:30:01 145.825 MHz
Gurwin Techsat 1B 31 Aug 02:19:59 02:22:29 13° 93° (E) 02:24:58 435.225 FM
Oscar 19 31 Aug 02:25:25 02:30:38 85° 284° (WNW) 02:35:49 437.125 CW, 437.150 USB
SO-50 31 Aug 02:44:51 02:48:45 31° 112° (ESE) 02:52:44 436.795 FM
AO-Echo 31 Aug 02:50:38 02:55:20 81° 102° (ESE) 03:00:05 ?
ITAMSAT 1 31 Aug 02:58:24 03:03:37 84° 103° (ESE) 03:08:48 435.822 SSB
Oscar 16 31 Aug 03:00:46 03:05:29 36° 289° (WNW) 03:10:10 437.025 USB, Beacon 2401.1428
Uribyol 2 31 Aug 03:08:19 03:13:30 73° 285° (WNW) 03:18:41 436.500 FM
TMSAT-1 31 Aug 03:09:26 03:14:09 32° 98° (E) 03:18:50 436.925 FM
AO-27 31 Aug 03:27:44 03:32:42 48° 287° (WNW) 03:37:40 436.795 MHz FM
Sapphire 31 Aug 03:33:44 03:38:20 29° 253° (WSW) 03:42:56 437.095 MHz 1200 baud AX-25 AFSK
JAS-1B 31 Aug 03:39:47 03:46:07 55° 289° (WNW) 03:51:44 435.800 - 435.900 CW/SSB
Gurwin Techsat 1B 31 Aug 03:57:32 04:02:45 58° 286° (WNW) 04:07:56 435.225 FM
PCSat 31 Aug 04:04:57 04:07:29 13° 257° (WSW) 04:10:01 145.825 MHz
OPAL 31 Aug 04:05:20 04:10:11 50° 71° (ENE) 04:15:08 ?
SO-50 31 Aug 04:25:50 04:29:18 22° 307° (NW) 04:32:51 436.795 FM
AO-7 31 Aug 04:37:57 04:45:53 49° 102° (ESE) 04:53:47 29.400 - 29.500 MHz
UOSAT-12 31 Aug 04:42:04 04:46:19 39° 113° (ESE) 04:50:39 437.025 FM, 437.400 FM
TMSAT-1 31 Aug 04:49:37 04:53:52 25° 291° (WNW) 04:58:07 436.925 FM
Uosat F 31 Aug 05:19:56 05:24:54 68° 285° (WNW) 05:29:51 435.120 FM
JAS-2 31 Aug 05:25:28 05:27:30 12° 94° (E) 05:29:35 435.800 - 435.900 CW/SSB, 435.910 FM
RS-15 31 Aug 05:34:22 05:40:11 16° 100° (E) 05:45:55 29.354 - 29.394 USB, Beacon 29.352 USB
OPAL 31 Aug 05:46:33 05:49:18 15° 265° (W) 05:52:04 ?
STRAND 1 31 Aug 05:51:10 05:54:53 21° 68° (ENE) 05:58:35 ?
Hamsat 31 Aug 06:09:34 06:13:34 36° 98° (E) 06:17:31 145.90 MHz
UOSAT-12 31 Aug 06:23:15 06:26:35 20° 309° (NW) 06:29:59 437.025 FM, 437.400 FM
AO-7 31 Aug 06:31:15 06:38:18 33° 297° (WNW) 06:45:21 29.400 - 29.500 MHz
Saudisat 1A 31 Aug 07:03:36 07:07:15 25° 54° (NE) 07:10:53 436.775 MHz
JAS-2 31 Aug 07:07:34 07:12:49 64° 285° (WNW) 07:18:34 435.800 - 435.900 CW/SSB, 435.910 FM
STRAND 1 31 Aug 07:29:05 07:33:46 37° 261° (W) 07:38:28 ?
KITSAT 1 31 Aug 07:36:52 07:43:17 25° 50° (NE) 07:49:40 435.175 FM
RS-15 31 Aug 07:39:45 07:50:57 87° 116° (ESE) 08:01:55 29.354 - 29.394 USB, Beacon 29.352 USB
Hamsat 31 Aug 07:46:38 07:49:11 16° 291° (WNW) 07:51:43 145.90 MHz
SO-67 31 Aug 08:15:59 08:19:12 36° 285° (WNW) 08:22:23 435.3500 MHz FM
Saudisat 1A 31 Aug 08:43:04 08:46:44 26° 249° (WSW) 08:50:22 436.775 MHz
HO-68 31 Aug 09:29:00 09:36:00 55° 102° (ESE) 09:42:58 435.675 MHz FM
KITSAT 1 31 Aug 09:31:15 09:39:14 67° 248° (WSW) 09:47:10 435.175 FM
UKube-1 31 Aug 09:34:41 09:38:25 28° 98° (E) 09:42:09 145.840 MHz, 145.915 MHz
Oscar 11 31 Aug 09:40:29 09:43:48 21° 96° (E) 09:47:05 145.825 FM, Beacon 2401.500 USB
ISS 31 Aug 09:53:29 09:56:47 71° 316° (NW) 10:00:06 145.800 FM
RS-15 31 Aug 09:56:11 10:04:41 25° 318° (NW) 10:13:10 29.354 - 29.394 USB, Beacon 29.352 USB
FUNcube-1 31 Aug 10:08:10 10:11:11 17° 95° (E) 10:14:12 145.950 - 145.970 MHz USB
PANSAT 31 Aug 10:51:16 10:54:19 22° 162° (SSE) 10:57:23 not established
UKube-1 31 Aug 11:11:17 11:14:24 20° 291° (WNW) 11:17:31 145.840 MHz, 145.915 MHz
Oscar 11 31 Aug 11:16:16 11:19:54 26° 289° (WNW) 11:23:31 145.825 FM, Beacon 2401.500 USB
HO-68 31 Aug 11:17:43 11:23:11 24° 297° (WNW) 11:28:39 435.675 MHz FM
SO-50 31 Aug 11:22:33 11:23:59 11° 47° (NE) 11:25:25 436.795 FM
FUNcube-1 31 Aug 11:43:27 11:47:36 35° 287° (WNW) 11:51:47 145.950 - 145.970 MHz USB
MaSat-1 31 Aug 12:04:50 12:08:42 25° 103° (ESE) 12:12:49 437.345 MHz
JAS-1B 31 Aug 12:29:49 12:35:18 17° 60° (ENE) 12:40:29 435.800 - 435.900 CW/SSB
PANSAT 31 Aug 12:30:29 12:34:09 42° 174° (S) 12:37:49 not established
Oscar 16 31 Aug 12:35:11 12:38:54 20° 67° (ENE) 12:42:38 437.025 USB, Beacon 2401.1428
Uribyol 2 31 Aug 12:47:07 12:48:02 11° 63° (ENE) 12:48:58 436.500 FM
SO-50 31 Aug 13:00:17 13:05:07 84° 243° (WSW) 13:09:58 436.795 FM
AO-27 31 Aug 13:04:12 13:07:19 16° 66° (ENE) 13:10:25 436.795 MHz FM
UOSAT-12 31 Aug 13:17:45 13:19:38 12° 47° (NE) 13:21:31 437.025 FM, 437.400 FM
Gurwin Techsat 1B 31 Aug 13:37:01 13:39:51 15° 65° (ENE) 13:42:40 435.225 FM
Oscar 19 31 Aug 13:37:39 13:42:48 87° 76° (ENE) 13:48:00 437.125 CW, 437.150 USB
MaSat-1 31 Aug 13:41:15 13:45:32 31° 299° (WNW) 13:50:04 437.345 MHz
AO-Echo 31 Aug 13:58:50 14:03:52 65° 75° (ENE) 14:08:45 ?
PANSAT 31 Aug 14:10:27 14:14:05 40° 187° (S) 14:17:43 not established
ITAMSAT 1 31 Aug 14:11:53 14:17:03 80° 76° (ENE) 14:22:13 435.822 SSB
Oscar 16 31 Aug 14:13:10 14:17:56 39° 261° (W) 14:22:45 437.025 USB, Beacon 2401.1428
JAS-1B 31 Aug 14:14:46 14:24:40 81° 74° (ENE) 14:33:43 435.800 - 435.900 CW/SSB
Uribyol 2 31 Aug 14:21:40 14:26:48 76° 257° (WSW) 14:31:58 436.500 FM
TMSAT-1 31 Aug 14:25:54 14:30:33 33° 71° (ENE) 14:35:13 436.925 FM
RS-15 31 Aug 14:36:05 14:42:52 17° 33° (NNE) 14:49:44 29.354 - 29.394 USB, Beacon 29.352 USB
AO-27 31 Aug 14:41:22 14:46:22 50° 260° (W) 14:51:23 436.795 MHz FM
UOSAT-12 31 Aug 14:55:35 15:00:17 73° 244° (WSW) 15:04:53 437.025 FM, 437.400 FM
Gurwin Techsat 1B 31 Aug 15:14:04 15:19:16 58° 259° (W) 15:24:30 435.225 FM
PCSat 31 Aug 15:15:55 15:18:50 15° 104° (ESE) 15:21:45 145.825 MHz
AO-7 31 Aug 15:31:56 15:39:42 45° 66° (ENE) 15:47:26 29.400 - 29.500 MHz
AO-Echo 31 Aug 15:41:59 15:42:55 10° 267° (W) 15:43:50 ?
PANSAT 31 Aug 15:51:03 15:53:52 20° 199° (SSW) 15:56:42 not established
TMSAT-1 31 Aug 16:06:11 16:10:25 24° 264° (W) 16:14:41 436.925 FM
JAS-1B 31 Aug 16:08:43 16:15:29 21° 267° (W) 16:22:00 435.800 - 435.900 CW/SSB
OPAL 31 Aug 16:20:39 16:24:29 20° 97° (E) 16:28:16 ?
ISS 31 Aug 16:26:34 16:28:52 17° 34° (NE) 16:31:10 145.800 FM
Sapphire 31 Aug 16:26:56 16:32:17 71° 113° (ESE) 16:37:41 437.095 MHz 1200 baud AX-25 AFSK
Uosat F 31 Aug 16:28:33 16:33:33 80° 257° (WSW) 16:38:35 435.120 FM
RS-15 31 Aug 16:46:45 16:57:50 66° 59° (ENE) 17:09:21 29.354 - 29.394 USB, Beacon 29.352 USB
PCSat 31 Aug 16:56:24 17:01:41 56° 298° (WNW) 17:07:01 145.825 MHz
Hamsat 31 Aug 16:59:46 17:02:19 16° 69° (ENE) 17:04:52 145.90 MHz
JAS-2 31 Aug 17:15:34 17:20:57 31° 71° (ENE) 17:25:51 435.800 - 435.900 CW/SSB, 435.910 FM
AO-7 31 Aug 17:25:05 17:32:27 35° 261° (W) 17:39:52 29.400 - 29.500 MHz
OPAL 31 Aug 17:58:35 18:03:24 39° 290° (WNW) 18:08:11 ?
ISS 31 Aug 18:02:35 18:05:43 40° 229° (SW) 18:08:51 145.800 FM
Sapphire 31 Aug 18:13:22 18:16:13 14° 309° (NW) 18:19:05 437.095 MHz 1200 baud AX-25 AFSK
Hamsat 31 Aug 18:33:58 18:37:55 36° 262° (W) 18:41:56 145.90 MHz
SO-67 31 Aug 18:44:35 18:47:37 29° 74° (ENE) 18:50:41 435.3500 MHz FM
RS-15 31 Aug 19:00:18 19:09:22 30° 255° (WSW) 19:18:48 29.354 - 29.394 USB, Beacon 29.352 USB
JAS-2 31 Aug 19:00:28 19:05:56 30° 261° (W) 19:10:55 435.800 - 435.900 CW/SSB, 435.910 FM
STRAND 1 31 Aug 19:43:47 19:48:53 77° 284° (WNW) 19:53:59 ?
HO-68 31 Aug 19:53:44 19:59:23 26° 64° (ENE) 20:05:02 435.675 MHz FM
SO-67 31 Aug 20:20:00 20:20:43 11° 267° (W) 20:21:26 435.3500 MHz FM
UKube-1 31 Aug 20:27:12 20:29:37 15° 67° (ENE) 20:32:03 145.840 MHz, 145.915 MHz
Saudisat 1A 31 Aug 21:06:38 21:09:37 18° 109° (ESE) 21:12:36 436.775 MHz
HO-68 31 Aug 21:39:46 21:46:39 51° 259° (WSW) 21:53:34 435.675 MHz FM
KITSAT 1 31 Aug 22:00:18 22:06:58 29° 106° (ESE) 22:13:39 435.175 FM
UKube-1 31 Aug 22:01:25 22:05:28 38° 261° (W) 22:09:31 145.840 MHz, 145.915 MHz
MaSat-1 31 Aug 22:03:53 22:07:04 19° 57° (ENE) 22:09:57 437.345 MHz
Oscar 11 31 Aug 22:05:59 22:10:15 58° 260° (W) 22:14:33 145.825 FM, Beacon 2401.500 USB
FUNcube-1 31 Aug 22:35:08 22:39:16 76° 258° (WSW) 22:43:31 145.950 - 145.970 MHz USB
